User: anonymous   Login
Location: New Plymouth
(39.0670°S, 174.0830°E)
Time: 15:42:46
(UTC+13:00)
Language:

NOAA 11 - Orbit

View from above orbital plane
View from above orbital plane
View from above satellite
View from above satellite

Ground track
Ground track

The orbit data is extracted from the following two-line orbital elements,

1 19531U 88089A   19325.54595090 -.00000009  00000-0  16358-4 0  9996
2 19531  98.4329 351.5249 0011320  11.7760 348.3677 14.15247839608268
Epoch (UTC): 21 November 2019 13:06:10
Eccentricity: 0.0011320
inclination: 98.4329°
perigee height: 833 km
apogee height: 849 km
right ascension of ascending node: 351.5249°
argument of perigee: 11.7760°
revolutions per day: 14.15247839
mean anomaly at epoch: 348.3677°
orbit number at epoch: 60826

The dashed part of the orbit path shows where the satellite is in the earth's shadow,  

DLR